Voltar ao catálogo

BREEZE-M DEB

TANK

AtivoHEO
NORAD 37604·DEBRIS·🇷🇺 Russia

Lançado May 20, 2011 de Baikonur Cosmodrome

Loading…

Próximas Passagens (próximas 24 horas)

TLE

AtualizadoSource: Space-Track

Época: Sep 13, 2026, 07:05 UTC

1 37604U 11021C   26256.29544716  .00000975  00000-0  41949-3 0  9995
2 37604  49.3557   2.0474 5811973 102.8104 324.7515  4.28245972224088

Acompanhe BREEZE-M DEB em tempo real com AllMySat

Download on the App Store